owner,sensor,date,latitude,longitude,vertical_datum,sea_water_temperature,qcFlag 
ADCP,ioos:station:wmo:42395:1,2019-06-01T00:00:00Z,26.4040,-90.7920,0.0,28.35938,11111222 
ADCP,ioos:station:wmo:42395:1,2019-06-01T00:20:00Z,26.4040,-90.7920,0.0,28.32031,11111222 
ADCP,ioos:station:wmo:42395:1,2019-06-01T00:40:00Z,26.4040,-90.7920,0.0,28.24219,11111222 
ADCP,ioos:station:wmo:42395:1,2019-06-01T01:00:00Z,26.4040,-90.7920,0.0,28.24219,11111222 
ADCP,ioos:station:wmo:42395:1,2019-06-01T01:20:00Z,26.4040,-90.7920,0.0,28.16406,11111222 
ADCP,ioos:station:wmo:42395:1,2019-06-01T01:40:00Z,26.4040,-90.7920,0.0,28.16406,11111222 
ADCP,ioos:station:wmo:42395:1,2019-06-01T02:00:00Z,26.4040,-90.7920,0.0,28.08594,11111222 
ADCP,ioos:station:wmo:42395:1,2019-06-01T02:20:00Z,26.4040,-90.7920,0.0,28.08594,11111222 
ADCP,ioos:station:wmo:42395:1,2019-06-01T02:40:00Z,26.4040,-90.7920,0.0,28.00781,11111222 
ADCP,ioos:station:wmo:42395:1,2019-06-01T03:00:00Z,26.4040,-90.7920,0.0,28.00781,11111222 
ADCP,ioos:station:wmo:42395:1,2019-06-01T03:20:00Z,26.4040,-90.7920,0.0,28.04688,11111222 
ADCP,ioos:station:wmo:42395:1,2019-06-01T03:40:00Z,26.4040,-90.7920,0.0,28.00781,11111222 
ADCP,ioos:station:wmo:42395:1,2019-06-01T04:00:00Z,26.4040,-90.7920,0.0,28.00781,11111222 
ADCP,ioos:station:wmo:42395:1,2019-06-01T04:20:00Z,26.4040,-90.7920,0.0,28.00781,11111222 
ADCP,ioos:station:wmo:42395:1,2019-06-01T04:40:00Z,26.4040,-90.7920,0.0,28.00781,11111222 
ADCP,ioos:station:wmo:42395:1,2019-06-01T05:00:00Z,26.4040,-90.7920,0.0,27.96875,11111222 
ADCP,ioos:station:wmo:42395:1,2019-06-01T05:20:00Z,26.4040,-90.7920,0.0,27.96875,11111222 
ADCP,ioos:station:wmo:42395:1,2019-06-01T05:40:00Z,26.4040,-90.7920,0.0,27.92969,11111222 
ADCP,ioos:station:wmo:42395:1,2019-06-01T06:00:00Z,26.4040,-90.7920,0.0,27.96875,11111222 
ADCP,ioos:station:wmo:42395:1,2019-06-01T06:20:00Z,26.4040,-90.7920,0.0,27.92969,11111222 
ADCP,ioos:station:wmo:42395:1,2019-06-01T06:40:00Z,26.4040,-90.7920,0.0,27.92969,11111222 
ADCP,ioos:station:wmo:42395:1,2019-06-01T07:00:00Z,26.4040,-90.7920,0.0,27.89063,11111222 
ADCP,ioos:station:wmo:42395:1,2019-06-01T07:20:00Z,26.4040,-90.7920,0.0,27.85156,11111222 
ADCP,ioos:station:wmo:42395:1,2019-06-01T07:40:00Z,26.4040,-90.7920,0.0,27.85156,11111222 
ADCP,ioos:station:wmo:42395:1,2019-06-01T08:00:00Z,26.4040,-90.7920,0.0,27.85156,11111222 
ADCP,ioos:station:wmo:42395:1,2019-06-01T08:20:00Z,26.4040,-90.7920,0.0,27.8125,11111222 
ADCP,ioos:station:wmo:42395:1,2019-06-01T08:40:00Z,26.4040,-90.7920,0.0,27.8125,11111222 
ADCP,ioos:station:wmo:42395:1,2019-06-01T09:00:00Z,26.4040,-90.7920,0.0,27.85156,11111222 
ADCP,ioos:station:wmo:42395:1,2019-06-01T09:20:00Z,26.4040,-90.7920,0.0,27.85156,11111222 
ADCP,ioos:station:wmo:42395:1,2019-06-01T09:40:00Z,26.4040,-90.7920,0.0,27.8125,11111222 
ADCP,ioos:station:wmo:42395:1,2019-06-01T10:00:00Z,26.4040,-90.7920,0.0,27.8125,11111222 
ADCP,ioos:station:wmo:42395:1,2019-06-01T10:20:00Z,26.4040,-90.7920,0.0,27.85156,11111222 
ADCP,ioos:station:wmo:42395:1,2019-06-01T10:40:00Z,26.4040,-90.7920,0.0,27.8125,11111222 
ADCP,ioos:station:wmo:42395:1,2019-06-01T11:00:00Z,26.4040,-90.7920,0.0,27.8125,11111222 
ADCP,ioos:station:wmo:42395:1,2019-06-01T11:20:00Z,26.4040,-90.7920,0.0,27.85156,11111222 
ADCP,ioos:station:wmo:42395:1,2019-06-01T11:40:00Z,26.4040,-90.7920,0.0,27.85156,11111222 
ADCP,ioos:station:wmo:42395:1,2019-06-01T12:00:00Z,26.4040,-90.7920,0.0,27.8125,11111222 
ADCP,ioos:station:wmo:42395:1,2019-06-01T12:20:00Z,26.4040,-90.7920,0.0,27.8125,11111222 
ADCP,ioos:station:wmo:42395:1,2019-06-01T12:40:00Z,26.4040,-90.7920,0.0,27.8125,11111222 
ADCP,ioos:station:wmo:42395:1,2019-06-01T13:00:00Z,26.4040,-90.7920,0.0,27.77344,11111222 
ADCP,ioos:station:wmo:42395:1,2019-06-01T13:20:00Z,26.4040,-90.7920,0.0,27.8125,11111222 
ADCP,ioos:station:wmo:42395:1,2019-06-01T13:40:00Z,26.4040,-90.7920,0.0,27.89063,11111222 
ADCP,ioos:station:wmo:42395:1,2019-06-01T14:00:00Z,26.4040,-90.7920,0.0,27.92969,11111222 
ADCP,ioos:station:wmo:42395:1,2019-06-01T14:20:00Z,26.4040,-90.7920,0.0,28.00781,11111222 
ADCP,ioos:station:wmo:42395:1,2019-06-01T14:40:00Z,26.4040,-90.7920,0.0,27.96875,11111222 
ADCP,ioos:station:wmo:42395:1,2019-06-01T15:00:00Z,26.4040,-90.7920,0.0,27.92969,11111222 
ADCP,ioos:station:wmo:42395:1,2019-06-01T15:20:00Z,26.4040,-90.7920,0.0,27.96875,11111222 
ADCP,ioos:station:wmo:42395:1,2019-06-01T15:40:00Z,26.4040,-90.7920,0.0,28.04688,11111222 
ADCP,ioos:station:wmo:42395:1,2019-06-01T16:00:00Z,26.4040,-90.7920,0.0,28.125,11111222 
ADCP,ioos:station:wmo:42395:1,2019-06-01T16:20:00Z,26.4040,-90.7920,0.0,28.24219,11111222 
ADCP,ioos:station:wmo:42395:1,2019-06-01T16:40:00Z,26.4040,-90.7920,0.0,28.28125,11111222 
ADCP,ioos:station:wmo:42395:1,2019-06-01T17:00:00Z,26.4040,-90.7920,0.0,28.35938,11111222 
ADCP,ioos:station:wmo:42395:1,2019-06-01T17:20:00Z,26.4040,-90.7920,0.0,28.4375,11111222 
ADCP,ioos:station:wmo:42395:1,2019-06-01T17:40:00Z,26.4040,-90.7920,0.0,28.47656,11111222 
ADCP,ioos:station:wmo:42395:1,2019-06-01T18:00:00Z,26.4040,-90.7920,0.0,28.47656,11111222 
ADCP,ioos:station:wmo:42395:1,2019-06-01T18:20:00Z,26.4040,-90.7920,0.0,28.51563,11111222 
ADCP,ioos:station:wmo:42395:1,2019-06-01T18:40:00Z,26.4040,-90.7920,0.0,28.55469,11111222 
ADCP,ioos:station:wmo:42395:1,2019-06-01T19:00:00Z,26.4040,-90.7920,0.0,28.55469,11111222 
ADCP,ioos:station:wmo:42395:1,2019-06-01T19:20:00Z,26.4040,-90.7920,0.0,28.67188,11111222 
ADCP,ioos:station:wmo:42395:1,2019-06-01T19:40:00Z,26.4040,-90.7920,0.0,28.63281,11111222 
ADCP,ioos:station:wmo:42395:1,2019-06-01T20:00:00Z,26.4040,-90.7920,0.0,28.59375,11111222 
ADCP,ioos:station:wmo:42395:1,2019-06-01T20:20:00Z,26.4040,-90.7920,0.0,28.59375,11111222 
ADCP,ioos:station:wmo:42395:1,2019-06-01T20:40:00Z,26.4040,-90.7920,0.0,28.67188,11111222 
ADCP,ioos:station:wmo:42395:1,2019-06-01T21:00:00Z,26.4040,-90.7920,0.0,28.67188,11111222 
ADCP,ioos:station:wmo:42395:1,2019-06-01T21:20:00Z,26.4040,-90.7920,0.0,28.71094,11111222 
ADCP,ioos:station:wmo:42395:1,2019-06-01T21:40:00Z,26.4040,-90.7920,0.0,28.71094,11111222 
ADCP,ioos:station:wmo:42395:1,2019-06-01T22:00:00Z,26.4040,-90.7920,0.0,28.75,11111222 
ADCP,ioos:station:wmo:42395:1,2019-06-01T22:20:00Z,26.4040,-90.7920,0.0,28.71094,11111222 
ADCP,ioos:station:wmo:42395:1,2019-06-01T22:40:00Z,26.4040,-90.7920,0.0,28.71094,11111222 
ADCP,ioos:station:wmo:42395:1,2019-06-01T23:00:00Z,26.4040,-90.7920,0.0,28.71094,11111222 
ADCP,ioos:station:wmo:42395:1,2019-06-01T23:20:00Z,26.4040,-90.7920,0.0,28.71094,11111222 
ADCP,ioos:station:wmo:42395:1,2019-06-01T23:40:00Z,26.4040,-90.7920,0.0,28.71094,11111222 
ADCP,ioos:station:wmo:42395:1,2019-06-02T00:00:00Z,26.4040,-90.7920,0.0,28.67188,11111222 
ADCP,ioos:station:wmo:42395:1,2019-06-02T00:20:00Z,26.4040,-90.7920,0.0,28.63281,11111222 
ADCP,ioos:station:wmo:42395:1,2019-06-02T00:40:00Z,26.4040,-90.7920,0.0,28.59375,11111222 
ADCP,ioos:station:wmo:42395:1,2019-06-02T01:00:00Z,26.4040,-90.7920,0.0,28.55469,11111222 
ADCP,ioos:station:wmo:42395:1,2019-06-02T01:20:00Z,26.4040,-90.7920,0.0,28.55469,11111222 
ADCP,ioos:station:wmo:42395:1,2019-06-02T01:40:00Z,26.4040,-90.7920,0.0,28.55469,11111222 
ADCP,ioos:station:wmo:42395:1,2019-06-02T02:00:00Z,26.4040,-90.7920,0.0,28.55469,11111222 
ADCP,ioos:station:wmo:42395:1,2019-06-02T02:20:00Z,26.4040,-90.7920,0.0,28.51563,11111222 
ADCP,ioos:station:wmo:42395:1,2019-06-02T02:40:00Z,26.4040,-90.7920,0.0,28.47656,11111222 
ADCP,ioos:station:wmo:42395:1,2019-06-02T03:00:00Z,26.4040,-90.7920,0.0,28.47656,11111222 
ADCP,ioos:station:wmo:42395:1,2019-06-02T03:20:00Z,26.4040,-90.7920,0.0,28.47656,11111222 
ADCP,ioos:station:wmo:42395:1,2019-06-02T03:40:00Z,26.4040,-90.7920,0.0,28.47656,11111222 
ADCP,ioos:station:wmo:42395:1,2019-06-02T04:00:00Z,26.4040,-90.7920,0.0,28.47656,11111222 
ADCP,ioos:station:wmo:42395:1,2019-06-02T04:20:00Z,26.4040,-90.7920,0.0,28.4375,11111222 
ADCP,ioos:station:wmo:42395:1,2019-06-02T04:40:00Z,26.4040,-90.7920,0.0,28.4375,11111222 
ADCP,ioos:station:wmo:42395:1,2019-06-02T05:00:00Z,26.4040,-90.7920,0.0,28.4375,11111222 
ADCP,ioos:station:wmo:42395:1,2019-06-02T05:20:00Z,26.4040,-90.7920,0.0,28.4375,11111222 
ADCP,ioos:station:wmo:42395:1,2019-06-02T05:40:00Z,26.4040,-90.7920,0.0,28.4375,11111222 
ADCP,ioos:station:wmo:42395:1,2019-06-02T06:00:00Z,26.4040,-90.7920,0.0,28.39844,11111222 
ADCP,ioos:station:wmo:42395:1,2019-06-02T06:20:00Z,26.4040,-90.7920,0.0,28.39844,11111222 
ADCP,ioos:station:wmo:42395:1,2019-06-02T06:40:00Z,26.4040,-90.7920,0.0,28.39844,11111222 
ADCP,ioos:station:wmo:42395:1,2019-06-02T07:00:00Z,26.4040,-90.7920,0.0,28.39844,11111222 
ADCP,ioos:station:wmo:42395:1,2019-06-02T07:20:00Z,26.4040,-90.7920,0.0,28.39844,11111222 
ADCP,ioos:station:wmo:42395:1,2019-06-02T07:40:00Z,26.4040,-90.7920,0.0,28.35938,11111222 
ADCP,ioos:station:wmo:42395:1,2019-06-02T08:00:00Z,26.4040,-90.7920,0.0,28.35938,11111222 
ADCP,ioos:station:wmo:42395:1,2019-06-02T08:20:00Z,26.4040,-90.7920,0.0,28.35938,11111222 
ADCP,ioos:station:wmo:42395:1,2019-06-02T08:40:00Z,26.4040,-90.7920,0.0,28.32031,11111222 
ADCP,ioos:station:wmo:42395:1,2019-06-02T09:00:00Z,26.4040,-90.7920,0.0,28.32031,11111222 
ADCP,ioos:station:wmo:42395:1,2019-06-02T09:20:00Z,26.4040,-90.7920,0.0,28.28125,11111222 
ADCP,ioos:station:wmo:42395:1,2019-06-02T09:40:00Z,26.4040,-90.7920,0.0,28.28125,11111222 
ADCP,ioos:station:wmo:42395:1,2019-06-02T10:00:00Z,26.4040,-90.7920,0.0,28.28125,11111222 
ADCP,ioos:station:wmo:42395:1,2019-06-02T10:20:00Z,26.4040,-90.7920,0.0,28.28125,11111222 
ADCP,ioos:station:wmo:42395:1,2019-06-02T10:40:00Z,26.4040,-90.7920,0.0,28.28125,11111222 
ADCP,ioos:station:wmo:42395:1,2019-06-02T11:00:00Z,26.4040,-90.7920,0.0,28.28125,11111222 
ADCP,ioos:station:wmo:42395:1,2019-06-02T11:20:00Z,26.4040,-90.7920,0.0,28.28125,11111222 
ADCP,ioos:station:wmo:42395:1,2019-06-02T11:40:00Z,26.4040,-90.7920,0.0,28.28125,11111222 
ADCP,ioos:station:wmo:42395:1,2019-06-02T12:00:00Z,26.4040,-90.7920,0.0,28.28125,11111222 
ADCP,ioos:station:wmo:42395:1,2019-06-02T12:20:00Z,26.4040,-90.7920,0.0,28.24219,11111222 
ADCP,ioos:station:wmo:42395:1,2019-06-02T12:40:00Z,26.4040,-90.7920,0.0,28.28125,11111222 
ADCP,ioos:station:wmo:42395:1,2019-06-02T13:00:00Z,26.4040,-90.7920,0.0,28.28125,11111222 
ADCP,ioos:station:wmo:42395:1,2019-06-02T13:20:00Z,26.4040,-90.7920,0.0,28.28125,11111222 
ADCP,ioos:station:wmo:42395:1,2019-06-02T13:40:00Z,26.4040,-90.7920,0.0,28.28125,11111222 
ADCP,ioos:station:wmo:42395:1,2019-06-02T14:00:00Z,26.4040,-90.7920,0.0,28.32031,11111222 
ADCP,ioos:station:wmo:42395:1,2019-06-02T14:20:00Z,26.4040,-90.7920,0.0,28.39844,11111222 
ADCP,ioos:station:wmo:42395:1,2019-06-02T14:40:00Z,26.4040,-90.7920,0.0,28.4375,11111222 
ADCP,ioos:station:wmo:42395:1,2019-06-02T15:00:00Z,26.4040,-90.7920,0.0,28.51563,11111222 
ADCP,ioos:station:wmo:42395:1,2019-06-02T15:20:00Z,26.4040,-90.7920,0.0,28.55469,11111222 
ADCP,ioos:station:wmo:42395:1,2019-06-02T15:40:00Z,26.4040,-90.7920,0.0,28.63281,11111222 
ADCP,ioos:station:wmo:42395:1,2019-06-02T16:00:00Z,26.4040,-90.7920,0.0,28.67188,11111222 
ADCP,ioos:station:wmo:42395:1,2019-06-02T16:20:00Z,26.4040,-90.7920,0.0,28.75,11111222 
ADCP,ioos:station:wmo:42395:1,2019-06-02T16:40:00Z,26.4040,-90.7920,0.0,28.78906,11111222 
ADCP,ioos:station:wmo:42395:1,2019-06-02T17:00:00Z,26.4040,-90.7920,0.0,28.90625,11111222 
ADCP,ioos:station:wmo:42395:1,2019-06-02T17:20:00Z,26.4040,-90.7920,0.0,28.98438,11111222 
ADCP,ioos:station:wmo:42395:1,2019-06-02T17:40:00Z,26.4040,-90.7920,0.0,29.0625,11111222 
ADCP,ioos:station:wmo:42395:1,2019-06-02T18:00:00Z,26.4040,-90.7920,0.0,29.10156,11111222 
ADCP,ioos:station:wmo:42395:1,2019-06-02T18:20:00Z,26.4040,-90.7920,0.0,29.10156,11111222 
ADCP,ioos:station:wmo:42395:1,2019-06-02T18:40:00Z,26.4040,-90.7920,0.0,29.17969,11111222 
ADCP,ioos:station:wmo:42395:1,2019-06-02T19:00:00Z,26.4040,-90.7920,0.0,29.17969,11111222 
ADCP,ioos:station:wmo:42395:1,2019-06-02T19:20:00Z,26.4040,-90.7920,0.0,29.17969,11111222 
ADCP,ioos:station:wmo:42395:1,2019-06-02T19:40:00Z,26.4040,-90.7920,0.0,29.29688,11111222 
ADCP,ioos:station:wmo:42395:1,2019-06-02T20:00:00Z,26.4040,-90.7920,0.0,29.29688,11111222 
ADCP,ioos:station:wmo:42395:1,2019-06-02T20:20:00Z,26.4040,-90.7920,0.0,29.33594,11111222 
ADCP,ioos:station:wmo:42395:1,2019-06-02T20:40:00Z,26.4040,-90.7920,0.0,29.375,11111222 
ADCP,ioos:station:wmo:42395:1,2019-06-02T21:00:00Z,26.4040,-90.7920,0.0,29.41406,11111222 
ADCP,ioos:station:wmo:42395:1,2019-06-02T21:20:00Z,26.4040,-90.7920,0.0,29.41406,11111222 
ADCP,ioos:station:wmo:42395:1,2019-06-02T21:40:00Z,26.4040,-90.7920,0.0,29.375,11111222 
ADCP,ioos:station:wmo:42395:1,2019-06-02T22:00:00Z,26.4040,-90.7920,0.0,29.29688,11111222 
ADCP,ioos:station:wmo:42395:1,2019-06-02T22:20:00Z,26.4040,-90.7920,0.0,29.41406,11111222 
ADCP,ioos:station:wmo:42395:1,2019-06-02T22:40:00Z,26.4040,-90.7920,0.0,29.29688,11111222 
ADCP,ioos:station:wmo:42395:1,2019-06-02T23:00:00Z,26.4040,-90.7920,0.0,29.33594,11111222 
ADCP,ioos:station:wmo:42395:1,2019-06-02T23:20:00Z,26.4040,-90.7920,0.0,29.33594,11111222 
ADCP,ioos:station:wmo:42395:1,2019-06-02T23:40:00Z,26.4040,-90.7920,0.0,29.25781,11111222 
ADCP,ioos:station:wmo:42395:1,2019-06-03T00:00:00Z,26.4040,-90.7920,0.0,29.25781,11111222 
ADCP,ioos:station:wmo:42395:1,2019-06-03T00:20:00Z,26.4040,-90.7920,0.0,29.25781,11111222 
ADCP,ioos:station:wmo:42395:1,2019-06-03T00:40:00Z,26.4040,-90.7920,0.0,29.14063,11111222 
ADCP,ioos:station:wmo:42395:1,2019-06-03T01:00:00Z,26.4040,-90.7920,0.0,29.14063,11111222 
ADCP,ioos:station:wmo:42395:1,2019-06-03T01:20:00Z,26.4040,-90.7920,0.0,29.10156,11111222 
ADCP,ioos:station:wmo:42395:1,2019-06-03T01:40:00Z,26.4040,-90.7920,0.0,29.0625,11111222 
ADCP,ioos:station:wmo:42395:1,2019-06-03T02:00:00Z,26.4040,-90.7920,0.0,29.0625,11111222 
ADCP,ioos:station:wmo:42395:1,2019-06-03T02:20:00Z,26.4040,-90.7920,0.0,29.02344,11111222 
ADCP,ioos:station:wmo:42395:1,2019-06-03T02:40:00Z,26.4040,-90.7920,0.0,28.94531,11111222 
ADCP,ioos:station:wmo:42395:1,2019-06-03T03:00:00Z,26.4040,-90.7920,0.0,28.98438,11111222 
ADCP,ioos:station:wmo:42395:1,2019-06-03T03:20:00Z,26.4040,-90.7920,0.0,29.02344,11111222 
ADCP,ioos:station:wmo:42395:1,2019-06-03T03:40:00Z,26.4040,-90.7920,0.0,28.94531,11111222 
ADCP,ioos:station:wmo:42395:1,2019-06-03T04:00:00Z,26.4040,-90.7920,0.0,28.86719,11111222 
ADCP,ioos:station:wmo:42395:1,2019-06-03T04:20:00Z,26.4040,-90.7920,0.0,28.75,11111222 
ADCP,ioos:station:wmo:42395:1,2019-06-03T04:40:00Z,26.4040,-90.7920,0.0,28.75,11111222 
ADCP,ioos:station:wmo:42395:1,2019-06-03T05:00:00Z,26.4040,-90.7920,0.0,28.71094,11111222 
ADCP,ioos:station:wmo:42395:1,2019-06-03T05:20:00Z,26.4040,-90.7920,0.0,28.67188,11111222 
ADCP,ioos:station:wmo:42395:1,2019-06-03T05:40:00Z,26.4040,-90.7920,0.0,28.63281,11111222 
ADCP,ioos:station:wmo:42395:1,2019-06-03T06:00:00Z,26.4040,-90.7920,0.0,28.63281,11111222 
ADCP,ioos:station:wmo:42395:1,2019-06-03T06:20:00Z,26.4040,-90.7920,0.0,28.67188,11111222 
ADCP,ioos:station:wmo:42395:1,2019-06-03T06:40:00Z,26.4040,-90.7920,0.0,28.63281,11111222 
ADCP,ioos:station:wmo:42395:1,2019-06-03T07:00:00Z,26.4040,-90.7920,0.0,28.59375,11111222 
ADCP,ioos:station:wmo:42395:1,2019-06-03T07:20:00Z,26.4040,-90.7920,0.0,28.59375,11111222 
ADCP,ioos:station:wmo:42395:1,2019-06-03T07:40:00Z,26.4040,-90.7920,0.0,28.59375,11111222 
ADCP,ioos:station:wmo:42395:1,2019-06-03T08:00:00Z,26.4040,-90.7920,0.0,28.59375,11111222 
ADCP,ioos:station:wmo:42395:1,2019-06-03T08:20:00Z,26.4040,-90.7920,0.0,28.55469,11111222 
ADCP,ioos:station:wmo:42395:1,2019-06-03T08:40:00Z,26.4040,-90.7920,0.0,28.51563,11111222 
ADCP,ioos:station:wmo:42395:1,2019-06-03T09:00:00Z,26.4040,-90.7920,0.0,28.47656,11111222 
ADCP,ioos:station:wmo:42395:1,2019-06-03T09:20:00Z,26.4040,-90.7920,0.0,28.51563,11111222 
ADCP,ioos:station:wmo:42395:1,2019-06-03T09:40:00Z,26.4040,-90.7920,0.0,28.47656,11111222 
ADCP,ioos:station:wmo:42395:1,2019-06-03T10:00:00Z,26.4040,-90.7920,0.0,28.51563,11111222 
ADCP,ioos:station:wmo:42395:1,2019-06-03T10:20:00Z,26.4040,-90.7920,0.0,28.4375,11111222 
ADCP,ioos:station:wmo:42395:1,2019-06-03T10:40:00Z,26.4040,-90.7920,0.0,28.4375,11111222 
ADCP,ioos:station:wmo:42395:1,2019-06-03T11:00:00Z,26.4040,-90.7920,0.0,28.4375,11111222 
ADCP,ioos:station:wmo:42395:1,2019-06-03T11:20:00Z,26.4040,-90.7920,0.0,28.47656,11111222 
ADCP,ioos:station:wmo:42395:1,2019-06-03T11:40:00Z,26.4040,-90.7920,0.0,28.51563,11111222 
ADCP,ioos:station:wmo:42395:1,2019-06-03T12:00:00Z,26.4040,-90.7920,0.0,28.47656,11111222 
ADCP,ioos:station:wmo:42395:1,2019-06-03T12:20:00Z,26.4040,-90.7920,0.0,28.51563,11111222 
ADCP,ioos:station:wmo:42395:1,2019-06-03T12:40:00Z,26.4040,-90.7920,0.0,28.51563,11111222 
ADCP,ioos:station:wmo:42395:1,2019-06-03T13:00:00Z,26.4040,-90.7920,0.0,28.55469,11111222 
ADCP,ioos:station:wmo:42395:1,2019-06-03T13:20:00Z,26.4040,-90.7920,0.0,28.59375,11111222 
ADCP,ioos:station:wmo:42395:1,2019-06-03T13:40:00Z,26.4040,-90.7920,0.0,28.63281,11111222 
ADCP,ioos:station:wmo:42395:1,2019-06-03T14:00:00Z,26.4040,-90.7920,0.0,28.67188,11111222 
ADCP,ioos:station:wmo:42395:1,2019-06-03T14:20:00Z,26.4040,-90.7920,0.0,28.71094,11111222 
ADCP,ioos:station:wmo:42395:1,2019-06-03T14:40:00Z,26.4040,-90.7920,0.0,28.75,11111222 
ADCP,ioos:station:wmo:42395:1,2019-06-03T15:00:00Z,26.4040,-90.7920,0.0,28.78906,11111222 
ADCP,ioos:station:wmo:42395:1,2019-06-03T15:20:00Z,26.4040,-90.7920,0.0,28.86719,11111222 
ADCP,ioos:station:wmo:42395:1,2019-06-03T15:40:00Z,26.4040,-90.7920,0.0,28.90625,11111222 
ADCP,ioos:station:wmo:42395:1,2019-06-03T16:00:00Z,26.4040,-90.7920,0.0,28.94531,11111222 
ADCP,ioos:station:wmo:42395:1,2019-06-03T16:20:00Z,26.4040,-90.7920,0.0,28.98438,11111222 
ADCP,ioos:station:wmo:42395:1,2019-06-03T16:40:00Z,26.4040,-90.7920,0.0,28.98438,11111222 
ADCP,ioos:station:wmo:42395:1,2019-06-03T17:00:00Z,26.4040,-90.7920,0.0,28.98438,11111222 
ADCP,ioos:station:wmo:42395:1,2019-06-03T17:20:00Z,26.4040,-90.7920,0.0,28.98438,11111222 
ADCP,ioos:station:wmo:42395:1,2019-06-03T17:40:00Z,26.4040,-90.7920,0.0,29.02344,11111222 
ADCP,ioos:station:wmo:42395:1,2019-06-03T18:00:00Z,26.4040,-90.7920,0.0,29.02344,11111222 
ADCP,ioos:station:wmo:42395:1,2019-06-03T18:20:00Z,26.4040,-90.7920,0.0,29.02344,11111222 
ADCP,ioos:station:wmo:42395:1,2019-06-03T18:40:00Z,26.4040,-90.7920,0.0,29.02344,11111222 
ADCP,ioos:station:wmo:42395:1,2019-06-03T19:00:00Z,26.4040,-90.7920,0.0,29.02344,11111222 
ADCP,ioos:station:wmo:42395:1,2019-06-03T19:20:00Z,26.4040,-90.7920,0.0,29.0625,11111222 
ADCP,ioos:station:wmo:42395:1,2019-06-03T19:40:00Z,26.4040,-90.7920,0.0,29.0625,11111222 
ADCP,ioos:station:wmo:42395:1,2019-06-03T20:00:00Z,26.4040,-90.7920,0.0,29.02344,11111222 
ADCP,ioos:station:wmo:42395:1,2019-06-03T20:20:00Z,26.4040,-90.7920,0.0,28.98438,11111222 
ADCP,ioos:station:wmo:42395:1,2019-06-03T20:40:00Z,26.4040,-90.7920,0.0,28.86719,11111222 
ADCP,ioos:station:wmo:42395:1,2019-06-03T21:00:00Z,26.4040,-90.7920,0.0,28.82813,11111222 
ADCP,ioos:station:wmo:42395:1,2019-06-03T21:20:00Z,26.4040,-90.7920,0.0,28.75,11111222 
ADCP,ioos:station:wmo:42395:1,2019-06-03T21:40:00Z,26.4040,-90.7920,0.0,28.75,11111222 
ADCP,ioos:station:wmo:42395:1,2019-06-03T22:00:00Z,26.4040,-90.7920,0.0,28.78906,11111222 
ADCP,ioos:station:wmo:42395:1,2019-06-03T22:20:00Z,26.4040,-90.7920,0.0,28.78906,11111222 
ADCP,ioos:station:wmo:42395:1,2019-06-03T22:40:00Z,26.4040,-90.7920,0.0,28.78906,11111222 
ADCP,ioos:station:wmo:42395:1,2019-06-03T23:00:00Z,26.4040,-90.7920,0.0,28.82813,11111222 
ADCP,ioos:station:wmo:42395:1,2019-06-03T23:20:00Z,26.4040,-90.7920,0.0,28.82813,11111222 
ADCP,ioos:station:wmo:42395:1,2019-06-03T23:40:00Z,26.4040,-90.7920,0.0,28.82813,11111222 
ADCP,ioos:station:wmo:42395:1,2019-06-04T00:00:00Z,26.4040,-90.7920,0.0,28.90625,11111222 
ADCP,ioos:station:wmo:42395:1,2019-06-04T00:20:00Z,26.4040,-90.7920,0.0,28.90625,11111222 
ADCP,ioos:station:wmo:42395:1,2019-06-04T00:40:00Z,26.4040,-90.7920,0.0,28.90625,11111222 
ADCP,ioos:station:wmo:42395:1,2019-06-04T01:00:00Z,26.4040,-90.7920,0.0,28.90625,11111222 
ADCP,ioos:station:wmo:42395:1,2019-06-04T01:20:00Z,26.4040,-90.7920,0.0,28.86719,11111222 
ADCP,ioos:station:wmo:42395:1,2019-06-04T01:40:00Z,26.4040,-90.7920,0.0,28.82813,11111222 
ADCP,ioos:station:wmo:42395:1,2019-06-04T02:00:00Z,26.4040,-90.7920,0.0,28.78906,11111222 
ADCP,ioos:station:wmo:42395:1,2019-06-04T02:20:00Z,26.4040,-90.7920,0.0,28.75,11111222 
ADCP,ioos:station:wmo:42395:1,2019-06-04T02:40:00Z,26.4040,-90.7920,0.0,28.67188,11111222 
ADCP,ioos:station:wmo:42395:1,2019-06-04T03:00:00Z,26.4040,-90.7920,0.0,28.63281,11111222 
ADCP,ioos:station:wmo:42395:1,2019-06-04T03:20:00Z,26.4040,-90.7920,0.0,28.59375,11111222 
ADCP,ioos:station:wmo:42395:1,2019-06-04T03:40:00Z,26.4040,-90.7920,0.0,28.59375,11111222 
ADCP,ioos:station:wmo:42395:1,2019-06-04T04:00:00Z,26.4040,-90.7920,0.0,28.55469,11111222 
ADCP,ioos:station:wmo:42395:1,2019-06-04T04:20:00Z,26.4040,-90.7920,0.0,28.51563,11111222 
ADCP,ioos:station:wmo:42395:1,2019-06-04T04:40:00Z,26.4040,-90.7920,0.0,28.51563,11111222 
ADCP,ioos:station:wmo:42395:1,2019-06-04T05:00:00Z,26.4040,-90.7920,0.0,28.51563,11111222 
ADCP,ioos:station:wmo:42395:1,2019-06-04T05:20:00Z,26.4040,-90.7920,0.0,28.51563,11111222 
ADCP,ioos:station:wmo:42395:1,2019-06-04T05:40:00Z,26.4040,-90.7920,0.0,28.47656,11111222 
ADCP,ioos:station:wmo:42395:1,2019-06-04T06:00:00Z,26.4040,-90.7920,0.0,28.47656,11111222 
ADCP,ioos:station:wmo:42395:1,2019-06-04T06:20:00Z,26.4040,-90.7920,0.0,28.47656,11111222 
ADCP,ioos:station:wmo:42395:1,2019-06-04T06:40:00Z,26.4040,-90.7920,0.0,28.47656,11111222 
ADCP,ioos:station:wmo:42395:1,2019-06-04T07:00:00Z,26.4040,-90.7920,0.0,28.47656,11111222 
ADCP,ioos:station:wmo:42395:1,2019-06-04T07:20:00Z,26.4040,-90.7920,0.0,28.47656,11111222 
ADCP,ioos:station:wmo:42395:1,2019-06-04T07:40:00Z,26.4040,-90.7920,0.0,28.51563,11111222 
ADCP,ioos:station:wmo:42395:1,2019-06-04T08:00:00Z,26.4040,-90.7920,0.0,28.47656,11111222 
ADCP,ioos:station:wmo:42395:1,2019-06-04T08:20:00Z,26.4040,-90.7920,0.0,28.4375,11111222 
ADCP,ioos:station:wmo:42395:1,2019-06-04T08:40:00Z,26.4040,-90.7920,0.0,28.4375,11111222 
ADCP,ioos:station:wmo:42395:1,2019-06-04T09:00:00Z,26.4040,-90.7920,0.0,28.39844,11111222 
ADCP,ioos:station:wmo:42395:1,2019-06-04T09:20:00Z,26.4040,-90.7920,0.0,28.39844,11111222 
ADCP,ioos:station:wmo:42395:1,2019-06-04T09:40:00Z,26.4040,-90.7920,0.0,28.35938,11111222 
ADCP,ioos:station:wmo:42395:1,2019-06-04T10:00:00Z,26.4040,-90.7920,0.0,28.35938,11111222 
ADCP,ioos:station:wmo:42395:1,2019-06-04T10:20:00Z,26.4040,-90.7920,0.0,28.32031,11111222 
ADCP,ioos:station:wmo:42395:1,2019-06-04T10:40:00Z,26.4040,-90.7920,0.0,28.32031,11111222 
ADCP,ioos:station:wmo:42395:1,2019-06-04T11:00:00Z,26.4040,-90.7920,0.0,28.35938,11111222 
ADCP,ioos:station:wmo:42395:1,2019-06-04T11:20:00Z,26.4040,-90.7920,0.0,28.35938,11111222 
ADCP,ioos:station:wmo:42395:1,2019-06-04T11:40:00Z,26.4040,-90.7920,0.0,28.39844,11111222 
ADCP,ioos:station:wmo:42395:1,2019-06-04T12:00:00Z,26.4040,-90.7920,0.0,28.39844,11111222 
ADCP,ioos:station:wmo:42395:1,2019-06-04T12:20:00Z,26.4040,-90.7920,0.0,28.39844,11111222 
ADCP,ioos:station:wmo:42395:1,2019-06-04T12:40:00Z,26.4040,-90.7920,0.0,28.39844,11111222 
ADCP,ioos:station:wmo:42395:1,2019-06-04T13:00:00Z,26.4040,-90.7920,0.0,28.39844,11111222 
ADCP,ioos:station:wmo:42395:1,2019-06-04T13:20:00Z,26.4040,-90.7920,0.0,28.39844,11111222 
ADCP,ioos:station:wmo:42395:1,2019-06-04T13:40:00Z,26.4040,-90.7920,0.0,28.39844,11111222 
ADCP,ioos:station:wmo:42395:1,2019-06-04T14:00:00Z,26.4040,-90.7920,0.0,28.39844,11111222 
ADCP,ioos:station:wmo:42395:1,2019-06-04T14:20:00Z,26.4040,-90.7920,0.0,28.39844,11111222 
ADCP,ioos:station:wmo:42395:1,2019-06-04T14:40:00Z,26.4040,-90.7920,0.0,28.39844,11111222 
ADCP,ioos:station:wmo:42395:1,2019-06-04T15:00:00Z,26.4040,-90.7920,0.0,28.39844,11111222 
ADCP,ioos:station:wmo:42395:1,2019-06-04T15:20:00Z,26.4040,-90.7920,0.0,28.39844,11111222 